TimeEDT,TemperatureF,Dew PointF,Humidity,Sea Level PressureIn,VisibilityMPH,Wind Direction,Wind SpeedMPH,Gust SpeedMPH,PrecipitationIn,Events,Conditions,WindDirDegrees,DateUTC
12:52 AM,64.9,61.0,87,30.08,10.0,NNE,5.8,-,0.05,,Overcast,20,2013-09-16 04:52:00
1:52 AM,64.9,59.0,81,30.08,10.0,NE,6.9,-,0.00,,Overcast,50,2013-09-16 05:52:00
2:52 AM,62.1,59.0,90,30.10,7.0,North,10.4,-,0.00,Rain,Light Rain,10,2013-09-16 06:52:00
3:52 AM,63.0,57.9,84,30.10,10.0,ENE,6.9,-,0.00,,Overcast,70,2013-09-16 07:52:00
4:52 AM,61.0,57.9,90,30.11,10.0,East,4.6,-,0.00,,Overcast,100,2013-09-16 08:52:00
5:52 AM,61.0,57.9,90,30.13,10.0,East,3.5,-,0.00,,Overcast,100,2013-09-16 09:52:00
6:52 AM,61.0,57.9,90,30.15,10.0,ESE,3.5,-,N/A,,Overcast,110,2013-09-16 10:52:00
7:52 AM,61.0,57.9,90,30.16,10.0,East,5.8,-,N/A,,Overcast,100,2013-09-16 11:52:00
8:52 AM,62.1,57.9,86,30.17,10.0,East,8.1,-,N/A,,Overcast,80,2013-09-16 12:52:00
9:01 AM,62.6,59.0,88,30.20,10.0,NNE,4.6,-,N/A,,Overcast,30,2013-09-16 13:01:00
9:25 AM,62.6,59.0,88,30.21,10.0,NE,6.9,-,N/A,,Overcast,40,2013-09-16 13:25:00
9:45 AM,62.6,59.0,88,30.21,10.0,NNE,9.2,-,N/A,,Overcast,20,2013-09-16 13:45:00
9:52 AM,63.0,57.9,84,30.19,9.0,NNE,9.2,-,N/A,,Overcast,30,2013-09-16 13:52:00
10:52 AM,66.0,59.0,78,30.22,10.0,NE,6.9,-,N/A,,Overcast,40,2013-09-16 14:52:00
11:22 AM,64.4,57.2,77,30.24,10.0,NNE,11.5,-,N/A,,Overcast,30,2013-09-16 15:22:00
11:52 AM,66.0,57.0,73,30.23,10.0,NE,8.1,-,N/A,,Overcast,40,2013-09-16 15:52:00
12:38 PM,66.2,57.2,73,30.25,10.0,ENE,10.4,-,N/A,,Overcast,60,2013-09-16 16:38:00
12:52 PM,68.0,57.0,68,30.24,10.0,ENE,9.2,-,N/A,,Overcast,60,2013-09-16 16:52:00
1:52 PM,66.9,55.9,68,30.25,10.0,ENE,10.4,-,N/A,,Overcast,60,2013-09-16 17:52:00
2:05 PM,66.2,55.4,68,30.26,10.0,ENE,9.2,-,N/A,,Overcast,60,2013-09-16 18:05:00
2:52 PM,69.1,55.9,63,30.23,10.0,ENE,9.2,-,N/A,,Overcast,60,2013-09-16 18:52:00
3:52 PM,70.0,55.0,59,30.22,10.0,NE,8.1,-,N/A,,Mostly Cloudy,50,2013-09-16 19:52:00
4:52 PM,72.0,55.0,55,30.21,10.0,NE,8.1,-,N/A,,Mostly Cloudy,40,2013-09-16 20:52:00
5:52 PM,71.1,54.0,55,30.21,10.0,NE,5.8,-,N/A,,Mostly Cloudy,50,2013-09-16 21:52:00
6:52 PM,70.0,52.0,53,30.21,10.0,ENE,10.4,-,N/A,,Scattered Clouds,60,2013-09-16 22:52:00
7:52 PM,68.0,54.0,61,30.21,10.0,NE,11.5,-,N/A,,Partly Cloudy,40,2013-09-16 23:52:00
8:52 PM,66.0,53.1,63,30.23,10.0,NE,10.4,-,N/A,,Clear,40,2013-09-17 00:52:00
9:52 PM,64.0,52.0,65,30.25,10.0,NE,8.1,-,N/A,,Clear,40,2013-09-17 01:52:00
10:52 PM,62.1,53.1,72,30.26,10.0,NNE,11.5,-,N/A,,Clear,20,2013-09-17 02:52:00
11:52 PM,61.0,52.0,72,30.27,10.0,NE,8.1,-,N/A,,Clear,50,2013-09-17 03:52:00